Location: Unspecified
(0.0000°N, 0.0000°E)
Time: 03:11:26
(UTC+00:00)

Explorer 11/Cluster Stage 4 - Pass Details

Date: 17 December 2018
Orbit: 467 x 1260 km, 28.8° (Epoch: 19 March)

Event Time Altitude Azimuth Distance (km) Brightness Sun altitude
Rises 21:31:14 0° 254° (WSW) 4,085 10.9 -47.7°
Reaches altitude 10° 21:34:29 10° 261° (W) 3,035 10.0 -48.4°
Enters shadow 21:35:57 16° 267° (W) 2,584 9.5 -48.7°
